IONOSFERA-M 4

Last updated on Mon Jun 22 2026 00:02:52 GMT+0000 (Coordinated Universal Time)

1 64877U 25155B 26172.50397899 .00000039 00000+0 37490-4 0 9996 2 64877 98.6032 134.2177 0001208 118.6135 241.5164 14.21489319 47010
UTC large
Height (km)
Speed (km/s)
/
Latitude / Longitude
Inclination (degrees)
Orbital Period (minutes)
Azimuth
Elevation
Range (km)
Doppler Factor

Next 0 passes for location: London (51.5072 / 0.1276)

No passes found over London.
IONOSFERA-M 4